www.pogodaiklimat.ru

ПОГОДА в Ламбертвилле, MI

  • Прогноз погоды в Ламбертвилле
  • Монитор погоды в Ламбертвилле
  • Климат в Ламбертвилле

АРХИВ ПОГОДЫ в Ламбертвилле

Время (UTC), дата Ветер
(напр.,м/с)
 
Видим.   Явления Облачность Т
(С)
Тd
(С)
f
(%)
Тe
(С)
Тes
(С)
Комфортность

P
(гПа)

Po
(гПа)
Тmin
(С)
Tmax
(С)
R
(мм)
SD
(см)
20:36 18.05 В  4
{7} 
16 км    5/0 2250 м
[средняя] 
+17.5  +13.6  78  +17  +21      986.8         
20:55 18.05 В  4
{7} 
16 км    ясно  +17.0  +13.5  80  +16  +21      986.5         
21:15 18.05 В  16 км    ясно  +17.2  +13.4  78  +17  +22      986.5         
21:35 18.05 В  16 км    ясно  +17.3  +13.8  80  +17  +22      986.5         
21:55 18.05 В  16 км    ясно  +17.0  +13.8  81  +17  +21      986.2         
21:56 18.05 В  16 км    ясно  +17.0  +13.8  81  +17  +21      986.2         
22:15 18.05 ЮВ  16 км    ясно  +16.9  +13.9  82  +17  +19      986.2         
22:16 18.05 В  16 км    ясно  +16.9  +14.0  83  +16  +18      986.2         
22:35 18.05 В  16 км    ясно  +16.8  +14.0  84  +17  +19      985.8         
22:55 18.05 В  16 км    ясно  +16.1  +13.5  85  +16  +19      985.8  +16.1  +20.4     
23:15 18.05 В  16 км    ясно  +16.0  +13.6  86  +15  +16      985.8         
23:16 18.05 В  16 км    ясно  +16.0  +13.6  86  +15  +16      985.8         
23:35 18.05 ЮВ  16 км    ясно  +15.5  +13.5  88  +15  +15      985.8         
23:36 18.05 ЮВ  16 км    ясно  +15.5  +13.5  88  +15  +15      985.8         
23:55 18.05 ЮВ  16 км    ясно  +15.1  +13.5  90  +15  +16      985.5         
00:15 19.05 ЮВ  16 км    ясно  +14.8  +13.5  92  +15  +15      985.5         
00:35 19.05   16 км    ясно  +14.7  +13.5  93  +14  +14      985.2         
00:36 19.05   16 км    ясно  +14.7  +13.5  93  +14  +14      985.2         
00:55 19.05 ЮВ  16 км    ясно  +14.6  +13.6  94  +14  +14      985.2         
01:15 19.05 ЮВ  16 км    ясно  +14.7  +13.7  94  +15  +15      985.2         
01:35 19.05 Ю  16 км    ясно  +14.7  +13.8  94  +14  +14      985.2         
01:36 19.05 Ю  16 км    ясно  +14.7  +13.8  94  +14  +14      985.2         
01:55 19.05 Ю  16 км    ясно  +15.0  +14.0  94  +14  +14      984.8         
01:56 19.05 Ю  11 км    ясно  +15.0  +14.0  94  +14  +14      984.8         
02:15 19.05 Ю  16 км    ясно  +15.5  +14.5  94  +16  +16      985.2         
02:35 19.05 Ю  16 км    ясно  +15.8  +14.8  94  +15  +15      985.2         
02:55 19.05 СЗ  16 км    ясно  +16.1  +14.9  93  +16  +16      985.5         
02:56 19.05 СЗ  16 км    ясно  +16.1  +14.9  93  +15  +15      985.5         
03:15 19.05   16 км    ясно  +16.8  +15.2  90  +17  +17      985.5         
03:16 19.05   16 км    ясно  +16.7  +15.2  91  +17  +17      985.5         
03:35 19.05   11 км    ясно  +15.2  +14.5  96  +15  +15      985.5         
03:55 19.05   11 км    ясно  +15.1  +14.7  97  +15  +15      985.5         
04:15 19.05   8 км  дымка  ясно  +14.7  +14.3  97  +14  +14      985.2         
04:16 19.05   8 км  дымка  ясно  +14.6  +14.3  98  +14  +14      985.5         
04:35 19.05   8 км  дымка  ясно  +14.0  +13.7  98  +14  +14      985.5         
04:36 19.05   8 км  дымка  ясно  +14.1  +13.8  98  +14  +14      985.5         
04:55 19.05   8 км  дымка  ясно  +14.4  +14.1  98  +14  +14      985.2  +14.0  +17.3     
05:15 19.05 Ю  8 км  дымка  ясно  +14.3  +14.1  99  +14  +14      985.2         
05:35 19.05 Ю  16 км    ясно  +15.1  +14.9  99  +15  +15      985.2         
05:36 19.05 Ю  16 км    ясно  +15.2  +15.0  99  +15  +15      985.2         
05:55 19.05   11 км    5/0 2100 м
[средняя] 
+15.1  +14.5  96  +15  +15      984.8         
05:56 19.05   11 км    5/0 2100 м
[средняя] 
+15.0  +14.5  97  +15  +15      984.8         
06:15 19.05   8 км  дымка  5/0 2100 м
[средняя] 
+14.4  +14.0  97  +14  +14      984.8         
06:35 19.05   8 км  дымка  ясно  +14.0  +13.7  98  +14  +14      984.5         
06:55 19.05   8 км  дымка  ясно  +13.9  +13.6  98  +13  +13      984.8         
06:56 19.05   8 км  дымка  ясно  +13.9  +13.6  98  +13  +13      984.8         
07:15 19.05   8 км  дымка  ясно  +13.7  +13.5  99  +13  +13      984.8         
07:16 19.05   8 км  дымка  ясно  +13.7  +13.5  99  +13  +13      984.8         

 

Местоположение метеостанции Toledo Suburban Airport: широта 41.7358 долгота -83.6553 высота над уровнем моря 204 м.

В архиве по умолчанию представлена погода в Ламбертвилле за последние 1-2 суток. Обновление информации о фактической погоде в базе происходит ежечасно! Архивные данные за месяц целиком и за предыдущие месяцы Вы можете получить, выбрав интересующий диапазон дат из раскрывающегося списка и нажав кнопку "Ввод!".

Внимание! Архив погоды МЕТАР в базе сайта хранится не более 60 дней. Нет смысла пытаться выбрать более раннюю дату.

Внимание! Время в таблицах - всемирное. Для получения местного времени необходимо прибавить поправку, которая в Ламбертвилле равна -5 ч.

Ветер - указаны скорость ветра в м/с и направление, откуда дует ветер: С - северный, СВ - северо-восточный, В - восточный, ЮВ - юго-восточный, Ю - южный, ЮЗ - юго-западный, З - западный, СЗ - северо-западный.
Видимость - горизонтальная дальность видимости в метрах или километрах. При видимости от 1 до 10 км при отсутствии осадков обычно наблюдается дымка, при ухудшении видимости до 1 км и менее - туман. В сухую погоду видимость может ухудшаться дымом, пылью или мглою.
Атмосферные явления - указаны явления, наблюдавшиеся в указанный момент времени.
Облачность - указаны через наклонную черту верхняя и нижняя облачность в баллах и высота нижней границы облаков в метрах. Внимание: облачность, как и прочие метеорологические величины в США измеряются автоматическими метеостанциями. Указанные значения в баллах носят условный характер и показывают процент времени, в течение которого, в среднем, лазерный луч высотомера отражался от облаков обратно.
T - Температура воздуха - температура, измеренная на высоте 2 м над землей.
Td - Температура точки росы - температура, при понижении до которой содержащийся в воздухе водяной пар достигнет насыщения.
f - Относительная влажность воздуха - влажноcть воздуха, измеренная на высоте 2 м над землей.
Te - Эффективная температура - температура, которую ощущает одетый по сезону человек в тени. Характеристика душности погоды. При расчете учитывается влияние влажности воздуха и скорости ветра на теплоощущения человека.
Tes - Эффективная температура на солнце - температура, которую ощущает человек, с поправкой на солнечный нагрев. Характеристика знойности погоды. Зависит от высоты солнца над горизонтом, облачности и скорости ветра. Ночью, в пасмурную погоду, а также при ветре 12 м/с и более поправка равна нулю.
P - Атмосферное давление - приведенное к уровню моря атмосферное давление.
Po - Атмосферное давление - измеренное на уровне метеостанции атмосферное давление.
Tmin - Минимальная температура - минимум температуры воздуха на высоте 2 м над землей.
Tmax - Максимальная температура - максимум температуры воздуха на высоте 2 м над землей.
R - Количество осадков - Количество выпавших осадков за 3 или 6 часов, мм.
SD - Снежный покров - Высота снежного покрова, см.